TimeCST,TemperatureF,Dew PointF,Humidity,Sea Level PressureIn,VisibilityMPH,Wind Direction,Wind SpeedMPH,Gust SpeedMPH,PrecipitationIn,Events,Conditions,WindDirDegrees,DateUTC
12:45 AM,78.8,73.4,83,29.95,8.0,Calm,Calm,-,N/A,,Clear,0,2013-01-18 06:45:00
1:45 AM,77.0,71.6,83,29.96,8.0,Calm,Calm,-,N/A,,Clear,0,2013-01-18 07:45:00
2:50 AM,74,71,88,29.94,6,SW,6.7,,,,,220,2013-01-18 08:50:00
2:55 AM,77.0,71.6,83,29.90,8.0,Calm,Calm,-,N/A,,Clear,0,2013-01-18 08:55:00
3:42 AM,77.0,71.6,83,29.95,8.0,Calm,Calm,-,N/A,,Clear,0,2013-01-18 09:42:00
4:45 AM,77.0,71.6,83,29.94,8.0,Calm,Calm,-,N/A,,Clear,0,2013-01-18 10:45:00
5:42 AM,77.0,71.6,83,29.95,8.0,Calm,Calm,-,N/A,,Clear,0,2013-01-18 11:42:00
5:50 AM,73,69,83,29.93,6,SSW,11.2,,,,Clear,200,2013-01-18 11:50:00
6:43 AM,77.0,71.6,83,29.95,10.0,Calm,Calm,-,N/A,,Partly Cloudy,0,2013-01-18 12:43:00
7:51 AM,75.2,68.0,78,29.87,8.0,Calm,Calm,-,N/A,,Mostly Cloudy,0,2013-01-18 13:51:00
7:55 AM,75.2,68.0,78,29.96,8.0,Calm,Calm,-,N/A,,Mostly Cloudy,0,2013-01-18 13:55:00
8:45 AM,77.0,66.2,69,29.95,8.0,Calm,Calm,-,N/A,,Mostly Cloudy,0,2013-01-18 14:45:00
8:50 AM,76,70,76,30.00,12,North,2.2,,,,Clear,10,2013-01-18 14:50:00
9:44 AM,78.8,68.0,69,30.00,8.0,Calm,Calm,-,N/A,,Mostly Cloudy,0,2013-01-18 15:44:00
10:42 AM,84.2,69.8,62,29.99,8.0,Calm,Calm,-,N/A,,Mostly Cloudy,0,2013-01-18 16:42:00
11:46 AM,87.8,71.6,58,29.98,8.0,SSW,6.9,-,N/A,,Mostly Cloudy,200,2013-01-18 17:46:00
11:50 AM,86,75,64,29.98,12,SSW,4.5,,,,Scattered Clouds,200,2013-01-18 17:50:00
12:42 PM,87.8,71.6,58,29.96,8.0,SSW,9.2,-,N/A,,Mostly Cloudy,200,2013-01-18 18:42:00
1:41 PM,87.8,73.4,62,29.93,8.0,SSE,9.2,-,N/A,,Mostly Cloudy,160,2013-01-18 19:41:00
2:40 PM,86,72,56,29.90,12,South,6.7,,,,Scattered Clouds,180,2013-01-18 20:40:00
2:42 PM,87.8,73.4,62,29.93,8.0,South,9.2,-,N/A,,Mostly Cloudy,190,2013-01-18 20:42:00
3:42 PM,86.0,71.6,62,29.91,8.0,WSW,11.5,-,N/A,,Mostly Cloudy,240,2013-01-18 21:42:00
4:42 PM,86.0,71.6,62,29.91,8.0,WSW,8.1,-,N/A,,Mostly Cloudy,240,2013-01-18 22:42:00
5:42 PM,84.2,71.6,66,29.90,8.0,WSW,5.8,-,N/A,,Mostly Cloudy,250,2013-01-18 23:42:00
5:50 PM,83,73,65,29.94,12,SW,4.5,,,,Scattered Clouds,230,2013-01-18 23:50:00
6:47 PM,82.4,73.4,74,29.95,8.0,Calm,Calm,-,N/A,,Mostly Cloudy,0,2013-01-19 00:47:00
7:42 PM,82.4,73.4,74,29.96,8.0,Calm,Calm,-,N/A,,Mostly Cloudy,0,2013-01-19 01:42:00
8:42 PM,82.4,73.4,74,30.00,8.0,Calm,Calm,-,N/A,,Scattered Clouds,0,2013-01-19 02:42:00
8:50 PM,77,73,83,29.98,6,West,2.2,,,,Clear,270,2013-01-19 02:50:00
9:42 PM,80.6,71.6,74,29.98,8.0,Calm,Calm,-,N/A,,Clear,0,2013-01-19 03:42:00
10:45 PM,78.8,69.8,74,29.98,8.0,Calm,Calm,-,N/A,,Clear,0,2013-01-19 04:45:00
11:45 PM,75,72,87,29.96,6,SE,2.2,,,,Clear,140,2013-01-19 05:45:00
11:45 PM,77.0,69.8,78,29.99,8.0,Calm,Calm,-,N/A,,Clear,0,2013-01-19 05:45:00